Year,Month,Day,Hour,Minute,Value (Times are PST for temperature in C)
2016,04,28,00,00,9.40
2016,04,28,00,01,9.50
2016,04,28,00,02,9.50
2016,04,28,00,03,9.50
2016,04,28,00,04,9.50
2016,04,28,00,05,9.50
2016,04,28,00,06,9.50
2016,04,28,00,07,9.50
2016,04,28,00,08,9.40
2016,04,28,00,09,9.40
2016,04,28,00,10,9.40
2016,04,28,00,11,9.40
2016,04,28,00,12,9.30
2016,04,28,00,13,9.30
2016,04,28,00,14,9.30
2016,04,28,00,15,9.30
2016,04,28,00,16,9.40
2016,04,28,00,17,9.40
2016,04,28,00,18,9.40
2016,04,28,00,19,9.40
2016,04,28,00,20,9.50
2016,04,28,00,21,9.50
2016,04,28,00,22,9.50
2016,04,28,00,23,9.50
2016,04,28,00,24,9.60
2016,04,28,00,25,9.60
2016,04,28,00,26,9.60
2016,04,28,00,27,9.60
2016,04,28,00,28,9.60
2016,04,28,00,29,9.50
2016,04,28,00,30,9.50
2016,04,28,00,31,9.50
2016,04,28,00,32,9.40
2016,04,28,00,33,9.40
2016,04,28,00,34,9.40
2016,04,28,00,35,9.30
2016,04,28,00,36,9.30
2016,04,28,00,37,9.30
2016,04,28,00,38,9.30
2016,04,28,00,39,9.30
2016,04,28,00,40,9.30
2016,04,28,00,41,9.30
2016,04,28,00,42,9.30
2016,04,28,00,43,9.30
2016,04,28,00,44,9.30
2016,04,28,00,45,9.30
2016,04,28,00,46,9.30
2016,04,28,00,47,9.20
2016,04,28,00,48,9.30
2016,04,28,00,49,9.30
2016,04,28,00,50,9.30
2016,04,28,00,51,9.30
2016,04,28,00,52,9.30
2016,04,28,00,53,9.30
2016,04,28,00,54,9.30
2016,04,28,00,55,9.30
2016,04,28,00,56,9.30
2016,04,28,00,57,9.30
2016,04,28,00,58,9.40
2016,04,28,00,59,9.40
2016,04,28,01,00,9.40
2016,04,28,01,01,9.40
2016,04,28,01,02,9.40
2016,04,28,01,03,9.40
2016,04,28,01,04,9.40
2016,04,28,01,05,9.40
2016,04,28,01,06,9.40
2016,04,28,01,07,9.40
2016,04,28,01,08,9.40
2016,04,28,01,09,9.40
2016,04,28,01,10,9.40
2016,04,28,01,11,9.40
2016,04,28,01,12,9.40
2016,04,28,01,13,9.40
2016,04,28,01,14,9.40
2016,04,28,01,15,9.40
2016,04,28,01,16,9.40
2016,04,28,01,17,9.30
2016,04,28,01,18,9.30
2016,04,28,01,19,9.30
2016,04,28,01,20,9.30
2016,04,28,01,21,9.30
2016,04,28,01,22,9.30
2016,04,28,01,23,9.20
2016,04,28,01,24,9.20
2016,04,28,01,25,9.20
2016,04,28,01,26,9.10
2016,04,28,01,27,9.10
2016,04,28,01,28,9.10
2016,04,28,01,29,9.10
2016,04,28,01,30,9.10
2016,04,28,01,31,9.10
2016,04,28,01,32,9.10
2016,04,28,01,33,9.10
2016,04,28,01,34,9.10
2016,04,28,01,35,9.10
2016,04,28,01,36,9.10
2016,04,28,01,37,9.20
2016,04,28,01,38,9.20
2016,04,28,01,39,9.20
2016,04,28,01,40,9.20
2016,04,28,01,41,9.20
2016,04,28,01,42,9.10
2016,04,28,01,43,9.10
2016,04,28,01,44,9.10
2016,04,28,01,45,9.00
2016,04,28,01,46,9.00
2016,04,28,01,47,8.90
2016,04,28,01,48,8.90
2016,04,28,01,49,8.90
2016,04,28,01,50,8.80
2016,04,28,01,51,8.80
2016,04,28,01,52,8.80
2016,04,28,01,53,8.80
2016,04,28,01,54,8.80
2016,04,28,01,55,8.70
2016,04,28,01,56,8.70
2016,04,28,01,57,8.70
2016,04,28,01,58,8.60
2016,04,28,01,59,8.60
2016,04,28,02,00,8.60
2016,04,28,02,01,8.50
2016,04,28,02,02,8.50
2016,04,28,02,03,8.40
2016,04,28,02,04,8.40
2016,04,28,02,05,8.40
2016,04,28,02,06,8.30
2016,04,28,02,07,8.30
2016,04,28,02,08,8.30
2016,04,28,02,09,8.20
2016,04,28,02,10,8.20
2016,04,28,02,11,8.20
2016,04,28,02,12,8.20
2016,04,28,02,13,8.20
2016,04,28,02,14,8.20
2016,04,28,02,15,8.20
2016,04,28,02,16,8.30
2016,04,28,02,17,8.30
2016,04,28,02,18,8.30
2016,04,28,02,19,8.30
2016,04,28,02,20,8.30
2016,04,28,02,21,8.30
2016,04,28,02,22,8.30
2016,04,28,02,23,8.30
2016,04,28,02,24,8.40
2016,04,28,02,25,8.40
2016,04,28,02,26,8.50
2016,04,28,02,27,8.50
2016,04,28,02,28,8.50
2016,04,28,02,29,8.50
2016,04,28,02,30,8.50
2016,04,28,02,31,8.50
2016,04,28,02,32,8.40
2016,04,28,02,33,8.40
2016,04,28,02,34,8.40
2016,04,28,02,35,8.40
2016,04,28,02,36,8.40
2016,04,28,02,37,8.40
2016,04,28,02,38,8.40
2016,04,28,02,39,8.40
2016,04,28,02,40,8.40
2016,04,28,02,41,8.40
2016,04,28,02,42,8.40
2016,04,28,02,43,8.40
2016,04,28,02,44,8.40
2016,04,28,02,45,8.40
2016,04,28,02,46,8.40
2016,04,28,02,47,8.40
2016,04,28,02,48,8.40
2016,04,28,02,49,8.40
2016,04,28,02,50,8.40
2016,04,28,02,51,8.40
2016,04,28,02,52,8.40
2016,04,28,02,53,8.40
2016,04,28,02,54,8.40
2016,04,28,02,55,8.30
2016,04,28,02,56,8.30
2016,04,28,02,57,8.30
2016,04,28,02,58,8.30
2016,04,28,02,59,8.30
2016,04,28,03,00,8.30
2016,04,28,03,01,8.30
2016,04,28,03,02,8.30
2016,04,28,03,03,8.30
2016,04,28,03,04,8.30
2016,04,28,03,05,8.30
2016,04,28,03,06,8.20
2016,04,28,03,07,8.20
2016,04,28,03,08,8.20
2016,04,28,03,09,8.20
2016,04,28,03,10,8.10
2016,04,28,03,11,8.10
2016,04,28,03,12,8.10
2016,04,28,03,13,8.10
2016,04,28,03,14,8.10
2016,04,28,03,15,8.10
2016,04,28,03,16,8.10
2016,04,28,03,17,8.10
2016,04,28,03,18,8.10
2016,04,28,03,19,8.10
2016,04,28,03,20,8.10
2016,04,28,03,21,8.10
2016,04,28,03,22,8.10
2016,04,28,03,23,8.10
2016,04,28,03,24,8.10
2016,04,28,03,25,8.10
2016,04,28,03,26,8.10
2016,04,28,03,27,8.00
2016,04,28,03,28,8.00
2016,04,28,03,29,7.90
2016,04,28,03,30,7.90
2016,04,28,03,31,7.90
2016,04,28,03,32,7.90
2016,04,28,03,33,7.90
2016,04,28,03,34,7.90
2016,04,28,03,35,7.90
2016,04,28,03,36,7.90
2016,04,28,03,37,7.90
2016,04,28,03,38,7.80
2016,04,28,03,39,7.80
2016,04,28,03,40,7.80
2016,04,28,03,41,7.80
2016,04,28,03,42,7.80
2016,04,28,03,43,7.80
2016,04,28,03,44,7.80
2016,04,28,03,45,7.80
2016,04,28,03,46,7.80
2016,04,28,03,47,7.80
2016,04,28,03,48,7.80
2016,04,28,03,49,7.80
2016,04,28,03,50,7.80
2016,04,28,03,51,7.80
2016,04,28,03,52,7.80
2016,04,28,03,53,7.70
2016,04,28,03,54,7.70
2016,04,28,03,55,7.70
2016,04,28,03,56,7.70
2016,04,28,03,57,7.70
2016,04,28,03,58,7.70
2016,04,28,03,59,7.70
2016,04,28,04,00,7.70
2016,04,28,04,01,7.70
2016,04,28,04,02,7.70
2016,04,28,04,03,7.70
2016,04,28,04,04,7.60
2016,04,28,04,05,7.60
2016,04,28,04,06,7.60
2016,04,28,04,07,7.60
2016,04,28,04,08,7.60
2016,04,28,04,09,7.60
2016,04,28,04,10,7.60
2016,04,28,04,11,7.60
2016,04,28,04,12,7.60
2016,04,28,04,13,7.60
2016,04,28,04,14,7.60
2016,04,28,04,15,7.60
2016,04,28,04,16,7.60
2016,04,28,04,17,7.60
2016,04,28,04,18,7.60
2016,04,28,04,19,7.60
2016,04,28,04,20,7.60
2016,04,28,04,21,7.60
2016,04,28,04,22,7.60
2016,04,28,04,23,7.60
2016,04,28,04,24,7.70
2016,04,28,04,25,7.70
2016,04,28,04,26,7.70
2016,04,28,04,27,7.70
2016,04,28,04,28,7.60
2016,04,28,04,29,7.60
2016,04,28,04,30,7.60
2016,04,28,04,31,7.60
2016,04,28,04,32,7.60
2016,04,28,04,33,7.50
2016,04,28,04,34,7.50
2016,04,28,04,35,7.50
2016,04,28,04,36,7.60
2016,04,28,04,37,7.60
2016,04,28,04,38,7.60
2016,04,28,04,39,7.60
2016,04,28,04,40,7.60
2016,04,28,04,41,7.60
2016,04,28,04,42,7.60
2016,04,28,04,43,7.60
2016,04,28,04,44,7.50
2016,04,28,04,45,7.50
2016,04,28,04,46,7.40
2016,04,28,04,47,7.40
2016,04,28,04,48,7.30
2016,04,28,04,49,7.30
2016,04,28,04,50,7.30
2016,04,28,04,51,7.30
2016,04,28,04,52,7.30
2016,04,28,04,53,7.30
2016,04,28,04,54,7.30
2016,04,28,04,55,7.30
2016,04,28,04,56,7.30
2016,04,28,04,57,7.30
2016,04,28,04,58,7.30
2016,04,28,04,59,7.30
2016,04,28,05,00,7.30
2016,04,28,05,01,7.30
2016,04,28,05,02,7.30
2016,04,28,05,03,7.30
2016,04,28,05,04,7.40
2016,04,28,05,05,7.40
2016,04,28,05,06,7.40
2016,04,28,05,07,7.40
2016,04,28,05,08,7.40
2016,04,28,05,09,7.40
2016,04,28,05,10,7.30
2016,04,28,05,11,7.30
2016,04,28,05,12,7.30
2016,04,28,05,13,7.30
2016,04,28,05,14,7.30
2016,04,28,05,15,7.30
2016,04,28,05,16,7.30
2016,04,28,05,17,7.30
2016,04,28,05,18,7.30
2016,04,28,05,19,7.30
2016,04,28,05,20,7.30
2016,04,28,05,21,7.30
2016,04,28,05,22,7.30
2016,04,28,05,23,7.30
2016,04,28,05,24,7.30
2016,04,28,05,25,7.30
2016,04,28,05,26,7.30
2016,04,28,05,27,7.40
2016,04,28,05,28,7.40
2016,04,28,05,29,7.40
2016,04,28,05,30,7.40
2016,04,28,05,31,7.40
2016,04,28,05,32,7.30
2016,04,28,05,33,7.30
2016,04,28,05,34,7.30
2016,04,28,05,35,7.30
2016,04,28,05,36,7.20
2016,04,28,05,37,7.20
2016,04,28,05,38,7.20
2016,04,28,05,39,7.10
2016,04,28,05,40,7.10
2016,04,28,05,41,7.10
2016,04,28,05,42,7.10
2016,04,28,05,43,7.00
2016,04,28,05,44,7.00
2016,04,28,05,45,7.00
2016,04,28,05,46,6.90
2016,04,28,05,47,6.80
2016,04,28,05,48,6.70
2016,04,28,05,49,6.70
2016,04,28,05,50,6.70
2016,04,28,05,51,6.70
2016,04,28,05,52,6.70
2016,04,28,05,53,6.80
2016,04,28,05,54,6.80
2016,04,28,05,55,6.80
2016,04,28,05,56,6.80
2016,04,28,05,57,6.80
2016,04,28,05,58,6.80
2016,04,28,05,59,6.80
2016,04,28,06,00,6.80
2016,04,28,06,01,6.70
2016,04,28,06,02,6.70
2016,04,28,06,03,6.70
2016,04,28,06,04,6.70
2016,04,28,06,05,6.70
2016,04,28,06,06,6.70
2016,04,28,06,07,6.70
2016,04,28,06,08,6.70
2016,04,28,06,09,6.60
2016,04,28,06,10,6.60
2016,04,28,06,11,6.60
2016,04,28,06,12,6.60
2016,04,28,06,13,6.60
2016,04,28,06,14,6.60
2016,04,28,06,15,6.60
2016,04,28,06,16,6.50
2016,04,28,06,17,6.50
2016,04,28,06,18,6.40
2016,04,28,06,19,6.30
2016,04,28,06,20,6.30
2016,04,28,06,21,6.20
2016,04,28,06,22,6.20
2016,04,28,06,23,6.20
2016,04,28,06,24,6.20
2016,04,28,06,25,6.20
2016,04,28,06,26,6.20
2016,04,28,06,27,6.20
2016,04,28,06,28,6.20
2016,04,28,06,29,6.20
2016,04,28,06,30,6.20
2016,04,28,06,31,6.20
2016,04,28,06,32,6.20
2016,04,28,06,33,6.20
2016,04,28,06,34,6.20
2016,04,28,06,35,6.20
2016,04,28,06,36,6.20
2016,04,28,06,37,6.20
2016,04,28,06,38,6.20
2016,04,28,06,39,6.20
2016,04,28,06,40,6.30
2016,04,28,06,41,6.30
2016,04,28,06,42,6.30
2016,04,28,06,43,6.30
2016,04,28,06,44,6.40
2016,04,28,06,45,6.40
2016,04,28,06,46,6.40
2016,04,28,06,47,6.40
2016,04,28,06,48,6.50
2016,04,28,06,49,6.50
2016,04,28,06,50,6.50
2016,04,28,06,51,6.50
2016,04,28,06,52,6.60
2016,04,28,06,53,6.60
2016,04,28,06,54,6.60
2016,04,28,06,55,6.60
2016,04,28,06,56,6.60
2016,04,28,06,57,6.60
2016,04,28,06,58,6.70
2016,04,28,06,59,6.70
2016,04,28,07,00,6.70
2016,04,28,07,01,6.80
2016,04,28,07,02,6.80
2016,04,28,07,03,6.80
2016,04,28,07,04,6.90
2016,04,28,07,05,6.90
2016,04,28,07,06,7.00
2016,04,28,07,07,7.00
2016,04,28,07,08,7.10
2016,04,28,07,09,7.10
2016,04,28,07,10,7.20
2016,04,28,07,11,7.20
2016,04,28,07,12,7.30
2016,04,28,07,13,7.30
2016,04,28,07,14,7.40
2016,04,28,07,15,7.40
2016,04,28,07,16,7.50
2016,04,28,07,17,7.60
2016,04,28,07,18,7.60
2016,04,28,07,19,7.70
2016,04,28,07,20,7.80
2016,04,28,07,21,7.80
2016,04,28,07,22,7.90
2016,04,28,07,23,7.90
2016,04,28,07,24,8.00
2016,04,28,07,25,8.00
2016,04,28,07,26,8.10
2016,04,28,07,27,8.10
2016,04,28,07,28,8.20
2016,04,28,07,29,8.20
2016,04,28,07,30,8.30
2016,04,28,07,31,8.30
2016,04,28,07,32,8.40
2016,04,28,07,33,8.40
2016,04,28,07,34,8.50
2016,04,28,07,35,8.60
2016,04,28,07,36,8.60
2016,04,28,07,37,8.70
2016,04,28,07,38,8.80
2016,04,28,07,39,8.80
2016,04,28,07,40,8.90
2016,04,28,07,41,9.00
2016,04,28,07,42,9.00
2016,04,28,07,43,9.10
2016,04,28,07,44,9.20
2016,04,28,07,45,9.30
2016,04,28,07,46,9.30
2016,04,28,07,47,9.40
2016,04,28,07,48,9.40
2016,04,28,07,49,9.50
2016,04,28,07,50,9.50
2016,04,28,07,51,9.60
2016,04,28,07,52,9.60
2016,04,28,07,53,9.60
2016,04,28,07,54,9.70
2016,04,28,07,55,9.70
2016,04,28,07,56,9.80
2016,04,28,07,57,9.80
2016,04,28,07,58,9.90
2016,04,28,07,59,9.90
2016,04,28,08,00,10.00
2016,04,28,08,01,10.00
2016,04,28,08,02,10.00
2016,04,28,08,03,10.10
2016,04,28,08,04,10.10
2016,04,28,08,05,10.10
2016,04,28,08,06,10.10
2016,04,28,08,07,10.10
2016,04,28,08,08,10.10
2016,04,28,08,09,10.10
2016,04,28,08,10,10.10
2016,04,28,08,11,10.10
2016,04,28,08,12,10.10
2016,04,28,08,13,10.10
2016,04,28,08,14,10.20
2016,04,28,08,15,10.20
2016,04,28,08,16,10.20
2016,04,28,08,17,10.20
2016,04,28,08,18,10.20
2016,04,28,08,19,10.10
2016,04,28,08,20,10.10
2016,04,28,08,21,10.10
2016,04,28,08,22,10.00
2016,04,28,08,23,9.90
2016,04,28,08,24,9.90
2016,04,28,08,25,9.90
2016,04,28,08,26,9.90
2016,04,28,08,27,9.90
2016,04,28,08,28,9.80
2016,04,28,08,29,9.80
2016,04,28,08,30,9.80
2016,04,28,08,31,9.70
2016,04,28,08,32,9.80
2016,04,28,08,33,9.80
2016,04,28,08,34,9.90
2016,04,28,08,35,9.90
2016,04,28,08,36,10.00
2016,04,28,08,37,9.90
2016,04,28,08,38,9.90
2016,04,28,08,39,9.90
2016,04,28,08,40,9.90
2016,04,28,08,41,9.90
2016,04,28,08,42,10.00
2016,04,28,08,43,10.00
2016,04,28,08,44,10.00
2016,04,28,08,45,10.10
2016,04,28,08,46,10.10
2016,04,28,08,47,10.10
2016,04,28,08,48,10.20
2016,04,28,08,49,10.20
2016,04,28,08,50,10.30
2016,04,28,08,51,10.30
2016,04,28,08,52,10.40
2016,04,28,08,53,10.40
2016,04,28,08,54,10.40
2016,04,28,08,55,10.40
2016,04,28,08,56,10.40
2016,04,28,08,57,10.50
2016,04,28,08,58,10.50
2016,04,28,08,59,10.60
2016,04,28,09,00,10.60
2016,04,28,09,01,10.60
2016,04,28,09,02,10.60
2016,04,28,09,03,10.70
2016,04,28,09,04,10.70
2016,04,28,09,05,10.70
2016,04,28,09,06,10.70
2016,04,28,09,07,10.70
2016,04,28,09,08,10.70
2016,04,28,09,09,10.70
2016,04,28,09,10,10.70
2016,04,28,09,11,10.80
2016,04,28,09,12,10.80
2016,04,28,09,13,10.80
2016,04,28,09,14,10.80
2016,04,28,09,15,10.80
2016,04,28,09,16,10.80
2016,04,28,09,17,10.80
2016,04,28,09,18,10.80
2016,04,28,09,19,10.90
2016,04,28,09,20,11.00
2016,04,28,09,21,11.00
2016,04,28,09,22,11.10
2016,04,28,09,23,11.20
2016,04,28,09,24,11.20
2016,04,28,09,25,11.30
2016,04,28,09,26,11.30
2016,04,28,09,27,11.40
2016,04,28,09,28,11.40
2016,04,28,09,29,11.40
2016,04,28,09,30,11.40
2016,04,28,09,31,11.40
2016,04,28,09,32,11.40
2016,04,28,09,33,11.40
2016,04,28,09,34,11.40
2016,04,28,09,35,11.40
2016,04,28,09,36,11.40
2016,04,28,09,37,11.40
2016,04,28,09,38,11.40
2016,04,28,09,39,11.40
2016,04,28,09,40,11.50
2016,04,28,09,41,11.50
2016,04,28,09,42,11.50
2016,04,28,09,43,11.60
2016,04,28,09,44,11.60
2016,04,28,09,45,11.60
2016,04,28,09,46,11.60
2016,04,28,09,47,11.50
2016,04,28,09,48,11.50
2016,04,28,09,49,11.40
2016,04,28,09,50,11.40
2016,04,28,09,51,11.40
2016,04,28,09,52,11.40
2016,04,28,09,53,11.50
2016,04,28,09,54,11.50
2016,04,28,09,55,11.50
2016,04,28,09,56,11.50
2016,04,28,09,57,11.50
2016,04,28,09,58,11.50
2016,04,28,09,59,11.40
2016,04,28,10,00,11.40
2016,04,28,10,01,11.40
2016,04,28,10,02,11.40
2016,04,28,10,03,11.50
2016,04,28,10,04,11.60
2016,04,28,10,05,11.70
2016,04,28,10,06,11.70
2016,04,28,10,07,11.80
2016,04,28,10,08,11.80
2016,04,28,10,09,11.80
2016,04,28,10,10,11.80
2016,04,28,10,11,11.80
2016,04,28,10,12,11.70
2016,04,28,10,13,11.70
2016,04,28,10,14,11.70
2016,04,28,10,15,11.70
2016,04,28,10,16,11.80
2016,04,28,10,17,11.80
2016,04,28,10,18,11.90
2016,04,28,10,19,11.90
2016,04,28,10,20,12.00
2016,04,28,10,21,12.00
2016,04,28,10,22,12.10
2016,04,28,10,23,12.20
2016,04,28,10,24,12.30
2016,04,28,10,25,12.30
2016,04,28,10,26,12.30
2016,04,28,10,27,12.40
2016,04,28,10,28,12.40
2016,04,28,10,29,12.50
2016,04,28,10,30,12.50
2016,04,28,10,31,12.50
2016,04,28,10,32,12.60
2016,04,28,10,33,12.70
2016,04,28,10,34,12.70
2016,04,28,10,35,12.80
2016,04,28,10,36,12.80
2016,04,28,10,37,12.90
2016,04,28,10,38,12.90
2016,04,28,10,39,13.00
2016,04,28,10,40,13.10
2016,04,28,10,41,13.10
2016,04,28,10,42,13.20
2016,04,28,10,43,13.20
2016,04,28,10,44,13.30
2016,04,28,10,45,13.20
2016,04,28,10,46,13.20
2016,04,28,10,47,13.20
2016,04,28,10,48,13.20
2016,04,28,10,49,13.20
2016,04,28,10,50,13.20
2016,04,28,10,51,13.20
2016,04,28,10,52,13.10
2016,04,28,10,53,13.00
2016,04,28,10,54,12.90
2016,04,28,10,55,12.90
2016,04,28,10,56,12.80
2016,04,28,10,57,12.80
2016,04,28,10,58,12.80
2016,04,28,10,59,12.80
2016,04,28,11,00,12.80
2016,04,28,11,01,12.80
2016,04,28,11,02,12.70
2016,04,28,11,03,12.70
2016,04,28,11,04,12.60
2016,04,28,11,05,12.60
2016,04,28,11,06,12.60
2016,04,28,11,07,12.70
2016,04,28,11,08,12.80
2016,04,28,11,09,12.90
2016,04,28,11,10,12.90
2016,04,28,11,11,13.00
2016,04,28,11,12,13.00
2016,04,28,11,13,13.10
2016,04,28,11,14,13.20
2016,04,28,11,15,13.20
2016,04,28,11,16,13.30
2016,04,28,11,17,13.50
2016,04,28,11,18,13.60
2016,04,28,11,19,13.60
2016,04,28,11,20,13.60
2016,04,28,11,21,13.60
2016,04,28,11,22,13.60
2016,04,28,11,23,13.60
2016,04,28,11,24,13.60
2016,04,28,11,25,13.70
2016,04,28,11,26,13.70
2016,04,28,11,27,13.80
2016,04,28,11,28,13.80
2016,04,28,11,29,13.80
2016,04,28,11,30,13.80
2016,04,28,11,31,13.70
2016,04,28,11,32,13.60
2016,04,28,11,33,13.50
2016,04,28,11,34,13.50
2016,04,28,11,35,13.40
2016,04,28,11,36,13.20
2016,04,28,11,37,13.10
2016,04,28,11,38,13.10
2016,04,28,11,39,13.20
2016,04,28,11,40,13.20
2016,04,28,11,41,13.30
2016,04,28,11,42,13.30
2016,04,28,11,43,13.30
2016,04,28,11,44,13.20
2016,04,28,11,45,13.20
2016,04,28,11,46,13.10
2016,04,28,11,47,13.00
2016,04,28,11,48,13.00
2016,04,28,11,49,13.00
2016,04,28,11,50,13.00
2016,04,28,11,51,13.10
2016,04,28,11,52,13.20
2016,04,28,11,53,13.20
2016,04,28,11,54,13.30
2016,04,28,11,55,13.30
2016,04,28,11,56,13.20
2016,04,28,11,57,13.20
2016,04,28,11,58,13.20
2016,04,28,11,59,13.20
2016,04,28,12,00,13.20
2016,04,28,12,01,13.20
2016,04,28,12,02,13.20
2016,04,28,12,03,13.20
2016,04,28,12,04,13.20
2016,04,28,12,05,13.20
2016,04,28,12,06,13.10
2016,04,28,12,07,13.10
2016,04,28,12,08,13.10
2016,04,28,12,09,13.10
2016,04,28,12,10,13.10
2016,04,28,12,11,13.10
2016,04,28,12,12,13.10
2016,04,28,12,13,13.00
2016,04,28,12,14,13.00
2016,04,28,12,15,13.00
2016,04,28,12,16,13.00
2016,04,28,12,17,12.90
2016,04,28,12,18,12.90
2016,04,28,12,19,12.80
2016,04,28,12,20,12.80
2016,04,28,12,21,12.80
2016,04,28,12,22,12.90
2016,04,28,12,23,13.00
2016,04,28,12,24,13.00
2016,04,28,12,25,13.00
2016,04,28,12,26,13.00
2016,04,28,12,27,13.00
2016,04,28,12,28,12.90
2016,04,28,12,29,12.90
2016,04,28,12,30,12.90
2016,04,28,12,31,12.80
2016,04,28,12,32,12.70
2016,04,28,12,33,12.70
2016,04,28,12,34,12.70
2016,04,28,12,35,12.80
2016,04,28,12,36,12.80
2016,04,28,12,37,12.90
2016,04,28,12,38,12.90
2016,04,28,12,39,12.80
2016,04,28,12,40,12.80
2016,04,28,12,41,12.90
2016,04,28,12,42,12.90
2016,04,28,12,43,12.90
2016,04,28,12,44,13.00
2016,04,28,12,45,13.00
2016,04,28,12,46,13.10
2016,04,28,12,47,13.20
2016,04,28,12,48,13.30
2016,04,28,12,49,13.40
2016,04,28,12,50,13.50
2016,04,28,12,51,13.60
2016,04,28,12,52,13.70
2016,04,28,12,53,13.80
2016,04,28,12,54,13.90
2016,04,28,12,55,13.90
2016,04,28,12,56,13.90
2016,04,28,12,57,13.90
2016,04,28,12,58,13.80
2016,04,28,12,59,13.80
2016,04,28,13,00,13.90
2016,04,28,13,01,14.00
2016,04,28,13,02,14.00
2016,04,28,13,03,14.00
2016,04,28,13,04,13.90
2016,04,28,13,05,13.90
2016,04,28,13,06,13.90
2016,04,28,13,07,14.00
2016,04,28,13,08,14.10
2016,04,28,13,09,14.10
2016,04,28,13,10,14.10
2016,04,28,13,11,14.00
2016,04,28,13,12,14.00
2016,04,28,13,13,13.90
2016,04,28,13,14,13.90
2016,04,28,13,15,13.90
2016,04,28,13,16,13.90
2016,04,28,13,17,14.00
2016,04,28,13,18,14.00
2016,04,28,13,19,14.00
2016,04,28,13,20,13.90
2016,04,28,13,21,14.00
2016,04,28,13,22,13.90
2016,04,28,13,23,13.90
2016,04,28,13,24,13.90
2016,04,28,13,25,13.90
2016,04,28,13,26,13.90
2016,04,28,13,27,14.00
2016,04,28,13,28,14.10
2016,04,28,13,29,14.10
2016,04,28,13,30,14.20
2016,04,28,13,31,14.20
2016,04,28,13,32,14.30
2016,04,28,13,33,14.40
2016,04,28,13,34,14.40
2016,04,28,13,35,14.50
2016,04,28,13,36,14.60
2016,04,28,13,37,14.70
2016,04,28,13,38,14.70
2016,04,28,13,39,14.70
2016,04,28,13,40,14.70
2016,04,28,13,41,14.60
2016,04,28,13,42,14.60
2016,04,28,13,43,14.50
2016,04,28,13,44,14.40
2016,04,28,13,45,14.40
2016,04,28,13,46,14.50
2016,04,28,13,47,14.50
2016,04,28,13,48,14.60
2016,04,28,13,49,14.70
2016,04,28,13,50,14.70
2016,04,28,13,51,14.80
2016,04,28,13,52,14.80
2016,04,28,13,53,14.80
2016,04,28,13,54,14.80
2016,04,28,13,55,14.70
2016,04,28,13,56,14.70
2016,04,28,13,57,14.70
2016,04,28,13,58,14.70
2016,04,28,13,59,14.70
2016,04,28,14,00,14.70
2016,04,28,14,01,14.70
2016,04,28,14,02,14.70
2016,04,28,14,03,14.70
2016,04,28,14,04,14.70
2016,04,28,14,05,14.70
2016,04,28,14,06,14.60
2016,04,28,14,07,14.60
2016,04,28,14,08,14.60
2016,04,28,14,09,14.60
2016,04,28,14,10,14.70
2016,04,28,14,11,14.70
2016,04,28,14,12,14.70
2016,04,28,14,13,14.80
2016,04,28,14,14,14.80
2016,04,28,14,15,14.90
2016,04,28,14,16,14.90
2016,04,28,14,17,14.90
2016,04,28,14,18,14.90
2016,04,28,14,19,14.80
2016,04,28,14,20,14.80
2016,04,28,14,21,14.80
2016,04,28,14,22,14.90
2016,04,28,14,23,15.00
2016,04,28,14,24,15.10
2016,04,28,14,25,15.20
2016,04,28,14,26,15.10
2016,04,28,14,27,15.10
2016,04,28,14,28,15.00
2016,04,28,14,29,15.00
2016,04,28,14,30,15.00
2016,04,28,14,31,15.10
2016,04,28,14,32,15.10
2016,04,28,14,33,15.20
2016,04,28,14,34,15.30
2016,04,28,14,35,15.30
2016,04,28,14,36,15.40
2016,04,28,14,37,15.40
2016,04,28,14,38,15.40
2016,04,28,14,39,15.30
2016,04,28,14,40,15.20
2016,04,28,14,41,15.10
2016,04,28,14,42,15.00
2016,04,28,14,43,14.90
2016,04,28,14,44,14.90
2016,04,28,14,45,14.80
2016,04,28,14,46,14.80
2016,04,28,14,47,14.70
2016,04,28,14,48,14.70
2016,04,28,14,49,14.70
2016,04,28,14,50,14.70
2016,04,28,14,51,14.70
2016,04,28,14,52,14.60
2016,04,28,14,53,14.40
2016,04,28,14,54,14.30
2016,04,28,14,55,14.10
2016,04,28,14,56,14.00
2016,04,28,14,57,14.00
2016,04,28,14,58,13.90
2016,04,28,14,59,13.80
2016,04,28,15,00,13.80
2016,04,28,15,01,13.80
2016,04,28,15,02,13.70
2016,04,28,15,03,13.70
2016,04,28,15,04,13.70
2016,04,28,15,05,13.70
2016,04,28,15,06,13.70
2016,04,28,15,07,13.80
2016,04,28,15,08,13.80
2016,04,28,15,09,13.80
2016,04,28,15,10,13.80
2016,04,28,15,11,13.90
2016,04,28,15,12,13.90
2016,04,28,15,13,14.00
2016,04,28,15,14,14.00
2016,04,28,15,15,14.00
2016,04,28,15,16,14.00
2016,04,28,15,17,14.10
2016,04,28,15,18,14.10
2016,04,28,15,19,14.10
2016,04,28,15,20,14.10
2016,04,28,15,21,14.10
2016,04,28,15,22,14.10
2016,04,28,15,23,14.00
2016,04,28,15,24,14.00
2016,04,28,15,25,13.90
2016,04,28,15,26,13.90
2016,04,28,15,27,13.90
2016,04,28,15,28,13.80
2016,04,28,15,29,13.80
2016,04,28,15,30,13.80
2016,04,28,15,31,13.70
2016,04,28,15,32,13.70
2016,04,28,15,33,13.70
2016,04,28,15,34,13.60
2016,04,28,15,35,13.60
2016,04,28,15,36,13.60
2016,04,28,15,37,13.60
2016,04,28,15,38,13.60
2016,04,28,15,39,13.60
2016,04,28,15,40,13.70
2016,04,28,15,41,13.70
2016,04,28,15,42,13.80
2016,04,28,15,43,13.90
2016,04,28,15,44,13.90
2016,04,28,15,45,14.00
2016,04,28,15,46,14.00
2016,04,28,15,47,14.10
2016,04,28,15,48,14.10
2016,04,28,15,49,14.10
2016,04,28,15,50,14.20
2016,04,28,15,51,14.20
2016,04,28,15,52,14.20
2016,04,28,15,53,14.20
2016,04,28,15,54,14.20
2016,04,28,15,55,14.10
2016,04,28,15,56,14.10
2016,04,28,15,57,14.10
2016,04,28,15,58,14.00
2016,04,28,15,59,14.00
2016,04,28,16,00,14.00
2016,04,28,16,01,14.00
2016,04,28,16,02,14.00
2016,04,28,16,03,14.00
2016,04,28,16,04,14.00
2016,04,28,16,05,14.00
2016,04,28,16,06,14.00
2016,04,28,16,07,14.10
2016,04,28,16,08,14.10
2016,04,28,16,09,14.10
2016,04,28,16,10,14.10
2016,04,28,16,11,14.20
2016,04,28,16,12,14.20
2016,04,28,16,13,14.20
2016,04,28,16,14,14.20
2016,04,28,16,15,14.20
2016,04,28,16,16,14.20
2016,04,28,16,17,14.20
2016,04,28,16,18,14.20
2016,04,28,16,19,14.20
2016,04,28,16,20,14.10
2016,04,28,16,21,14.10
2016,04,28,16,22,14.10
2016,04,28,16,23,14.10
2016,04,28,16,24,14.10
2016,04,28,16,25,14.10
2016,04,28,16,26,14.10
2016,04,28,16,27,14.10
2016,04,28,16,28,14.10
2016,04,28,16,29,14.10
2016,04,28,16,30,14.20
2016,04,28,16,31,14.20
2016,04,28,16,32,14.20
2016,04,28,16,33,14.10
2016,04,28,16,34,14.10
2016,04,28,16,35,14.10
2016,04,28,16,36,14.10
2016,04,28,16,37,14.10
2016,04,28,16,38,14.10
2016,04,28,16,39,14.10
2016,04,28,16,40,14.10
2016,04,28,16,41,14.10
2016,04,28,16,42,14.10
2016,04,28,16,43,14.10
2016,04,28,16,44,14.10
2016,04,28,16,45,14.10
2016,04,28,16,46,14.10
2016,04,28,16,47,14.10
2016,04,28,16,48,14.10
2016,04,28,16,49,14.20
2016,04,28,16,50,14.20
2016,04,28,16,51,14.30
2016,04,28,16,52,14.30
2016,04,28,16,53,14.30
2016,04,28,16,54,14.40
2016,04,28,16,55,14.40
2016,04,28,16,56,14.40
2016,04,28,16,57,14.40
2016,04,28,16,58,14.40
2016,04,28,16,59,14.40
2016,04,28,17,00,14.40
2016,04,28,17,01,14.40
2016,04,28,17,02,14.40
2016,04,28,17,03,14.40
2016,04,28,17,04,14.30
2016,04,28,17,05,14.30
2016,04,28,17,06,14.30
2016,04,28,17,07,14.30
2016,04,28,17,08,14.30
2016,04,28,17,09,14.30
2016,04,28,17,10,14.30
2016,04,28,17,11,14.20
2016,04,28,17,12,14.20
2016,04,28,17,13,14.20
2016,04,28,17,14,14.20
2016,04,28,17,15,14.10
2016,04,28,17,16,14.10
2016,04,28,17,17,14.10
2016,04,28,17,18,14.00
2016,04,28,17,19,14.00
2016,04,28,17,20,14.00
2016,04,28,17,21,13.90
2016,04,28,17,22,13.90
2016,04,28,17,23,13.90
2016,04,28,17,24,13.90
2016,04,28,17,25,13.80
2016,04,28,17,26,13.80
2016,04,28,17,27,13.80
2016,04,28,17,28,13.80
2016,04,28,17,29,13.80
2016,04,28,17,30,13.80
2016,04,28,17,31,13.80
2016,04,28,17,32,13.80
2016,04,28,17,33,13.80
2016,04,28,17,34,13.80
2016,04,28,17,35,13.80
2016,04,28,17,36,13.80
2016,04,28,17,37,13.80
2016,04,28,17,38,13.80
2016,04,28,17,39,13.80
2016,04,28,17,40,13.80
2016,04,28,17,41,13.90